Theta_e
319 319 320 320 320 319 317 316 314 314 313 314 314 314 314 313 307 304 299 306 309 314 313 304 302 302 304 301 302 302 295 293 295 294 296 295 295 296 297 296 296 297 297 300 305
318 319 319 320 320 320 319 317 315 313 313 313 313 314 314 312 301 297 305 311 312 313 304 299 297 299 299 298 300 298 294 295 295 296 295 295 295 295 294 295 295 296 298 301 304
318 319 319 320 320 321 320 318 316 314 312 312 313 313 313 309 298 295 308 310 311 308 303 301 299 298 295 297 295 295 293 292 292 293 294 294 293 295 294 294 297 296 297 299 301
318 319 320 320 320 321 320 318 316 315 312 311 312 312 312 304 291 299 307 308 308 305 302 299 297 295 293 292 294 291 291 291 292 293 292 292 294 293 294 296 297 298 299 300 300
318 318 319 320 320 320 320 318 316 315 311 311 311 311 303 296 293 302 306 306 304 303 300 297 295 295 292 292 292 291 291 292 292 292 293 293 292 293 294 298 297 297 297 298 299
318 318 318 319 320 320 319 317 315 313 311 311 312 308 299 292 300 302 302 303 303 302 300 299 296 297 294 292 291 292 292 291 292 293 293 291 293 291 294 297 297 296 297 298 299
318 318 318 319 319 319 317 315 314 312 310 310 310 300 298 293 300 303 303 301 303 302 299 300 299 297 296 292 294 292 289 291 292 292 291 291 289 289 295 296 295 296 296 298 298
319 318 318 318 319 318 315 313 311 308 310 310 307 301 293 299 302 301 303 302 304 303 302 302 302 298 295 295 291 289 289 287 290 290 291 290 287 292 294 294 293 295 296 297 298
319 318 318 318 318 317 314 310 308 307 305 303 301 299 291 299 296 300 302 299 301 302 302 300 298 295 294 291 289 289 289 285 287 290 289 288 287 292 293 292 292 294 295 296 297
318 318 318 318 317 313 311 307 306 305 305 301 301 298 294 290 296 298 302 301 298 299 297 297 295 293 291 292 288 289 286 286 285 287 287 286 286 290 293 292 292 293 294 295 296
318 318 318 316 314 310 310 311 304 304 300 292 290 289 291 296 298 298 299 298 297 296 293 293 294 290 287 287 286 286 285 285 288 288 284 286 287 289 293 293 292 293 293 293 294
316 315 314 313 312 310 310 301 297 297 296 294 290 291 292 295 292 296 301 294 293 290 292 293 290 288 289 288 287 286 284 285 287 286 285 285 284 288 290 290 291 291 292 293 294
314 313 312 311 307 308 301 297 300 300 296 291 290 289 290 294 291 292 296 294 290 287 288 290 288 288 287 287 285 286 284 284 282 285 287 283 286 290 288 290 291 292 293 293 294
312 312 311 310 308 305 299 300 301 301 288 289 288 289 292 294 291 295 296 293 291 286 287 288 288 286 286 284 285 284 285 283 282 281 281 284 279 287 289 287 288 291 292 293 293
309 309 309 308 308 303 299 301 301 300 284 289 288 293 293 292 292 292 296 294 289 286 288 288 286 285 284 284 285 283 285 283 281 280 278 281 279 286 286 285 287 290 292 292 293
308 307 307 309 307 300 302 301 300 287 283 287 288 288 291 291 291 292 292 294 292 288 287 285 288 287 286 285 285 285 282 281 280 280 277 275 278 284 287 286 287 289 290 290 291
306 304 305 305 302 303 304 301 287 284 287 286 286 288 288 288 289 288 288 288 287 285 285 283 284 285 286 283 285 283 282 280 279 278 279 273 276 283 287 287 288 288 289 290 291
305 304 301 302 304 305 304 290 284 285 286 289 287 289 287 286 286 287 287 287 286 285 284 283 281 283 284 283 281 282 280 279 274 276 278 271 276 285 286 286 289 288 289 289 289
308 310 307 304 303 306 298 284 285 286 288 286 289 287 285 285 285 287 287 286 286 285 283 282 280 283 283 285 283 281 278 279 276 269 273 281 283 286 285 284 286 287 287 288 290
309 307 303 303 304 305 286 285 285 289 288 287 286 286 284 285 285 287 287 287 285 286 285 282 280 280 282 284 282 281 281 278 279 273 273 280 279 281 286 285 285 285 288 289 289
307 296 302 303 306 291 284 284 284 291 291 286 287 285 286 285 284 286 286 286 287 284 285 283 281 279 280 279 281 278 279 278 278 277 275 274 280 288 286 285 284 286 288 286 286
303 286 302 304 288 286 284 284 289 289 290 289 287 288 286 285 284 284 285 287 288 286 282 284 282 279 282 282 282 282 282 281 278 276 276 274 276 285 287 286 284 284 285 287 287
293 293 303 303 284 284 285 283 289 289 288 286 286 288 287 284 282 286 285 287 288 286 284 283 280 277 278 277 279 278 280 281 278 278 276 275 279 285 283 283 285 284 287 287 287
296 285 289 292 294 287 285 285 285 290 289 289 287 286 285 282 285 283 284 287 287 286 286 284 281 279 278 281 282 276 279 279 278 276 278 278 279 284 286 286 287 287 287 287 286
294 287 289 284 286 288 287 287 284 283 288 289 285 285 284 281 282 281 284 286 286 287 285 283 277 280 281 281 280 279 279 279 276 277 276 279 280 284 286 286 286 287 286 285 285
290 288 291 288 287 286 285 284 284 286 286 283 283 286 286 282 284 282 284 284 284 285 284 285 279 275 275 280 281 278 278 279 278 279 278 279 278 285 286 286 285 286 285 284 285
296 296 290 286 286 284 284 284 284 287 288 289 287 286 284 286 289 289 289 289 288 284 282 281 279 274 275 275 273 271 274 278 280 281 280 275 281 286 285 284 285 286 286 285 285
Wind_Speed
11 12 13 13 13 12 11 9 8 7 7 7 8 8 9 8 6 2 7 10 10 15 14 6 3 1 2 3 2 3 5 7 9 7 3 6 8 3 2 4 4 3 2 4 16
11 12 13 14 14 12 12 11 9 8 7 7 7 9 8 6 2 11 7 13 12 11 5 2 4 3 3 2 1 4 5 6 7 5 1 6 6 5 5 8 8 7 4 6 14
11 12 14 14 15 14 13 11 10 9 8 7 8 8 7 4 5 5 14 14 12 7 3 1 2 2 2 2 1 0 4 3 3 4 3 2 3 3 6 8 10 10 12 11 13
11 12 13 15 16 15 15 13 11 8 8 7 8 7 4 4 2 7 15 13 9 3 2 2 3 3 2 4 1 3 1 2 2 2 1 2 3 5 11 9 6 2 5 13 13
12 13 14 15 16 16 16 14 12 7 7 7 7 6 3 2 4 9 14 9 3 2 3 1 2 2 3 3 2 1 3 1 2 1 2 3 8 9 11 12 4 4 4 11 11
10 12 13 15 16 17 17 15 12 5 6 7 8 5 3 2 5 9 10 6 9 4 4 3 3 3 6 3 2 2 2 1 1 0 2 5 7 2 3 4 15 12 10 10 11
11 12 13 14 16 17 17 16 11 4 5 6 7 5 7 6 3 9 6 5 7 6 3 4 2 1 2 5 2 3 2 2 3 0 2 5 10 14 13 6 8 16 14 12 13
10 11 12 13 16 18 18 16 7 3 5 5 6 6 4 1 5 9 8 2 5 4 5 2 4 6 3 5 3 2 3 3 5 1 3 2 8 5 1 6 10 11 13 15 15
9 10 12 12 15 17 17 11 3 3 4 5 4 5 4 2 2 7 7 5 4 2 3 2 1 3 3 2 3 1 2 4 4 2 2 6 9 4 3 6 10 10 13 14 14
9 9 11 13 15 18 16 4 2 3 3 2 1 3 3 5 5 7 5 5 3 2 2 0 1 0 2 1 2 2 4 3 6 4 4 10 18 23 17 17 19 16 15 16 17
8 9 10 12 14 18 9 3 3 4 10 5 4 3 3 8 2 7 4 4 2 1 1 3 1 1 2 2 2 3 5 9 9 4 6 13 14 22 17 16 17 16 14 13 12
8 9 11 13 9 15 6 6 4 4 1 4 2 1 2 5 3 9 9 2 4 2 3 0 0 3 3 2 2 3 4 6 8 2 5 13 20 24 18 7 6 4 5 5 5
9 9 12 15 2 4 9 6 4 4 4 3 2 2 3 5 3 8 10 2 4 3 4 3 4 2 2 2 4 4 4 6 6 10 8 12 13 6 4 4 4 4 2 3 6
9 10 12 14 3 2 4 4 3 3 2 4 2 3 2 3 1 3 5 4 2 2 3 3 2 1 2 2 2 3 4 3 5 7 4 5 7 11 6 6 7 8 7 7 7
8 9 8 13 3 3 4 5 3 4 2 2 2 3 3 3 4 3 2 3 2 2 2 3 1 1 1 3 1 3 3 3 2 3 5 4 4 4 3 6 8 9 6 6 4
8 11 6 1 3 2 4 3 4 5 2 2 3 4 3 2 2 3 1 2 2 2 2 2 1 3 3 2 2 2 4 4 3 2 5 3 4 5 1 1 7 8 7 6 6
6 13 5 3 4 5 3 3 5 2 2 5 3 4 2 3 2 4 3 3 3 2 1 2 2 2 1 3 3 1 3 3 4 4 3 1 5 10 5 1 5 8 7 7 4
6 2 5 4 4 5 3 4 1 1 1 1 3 4 3 4 1 4 3 3 2 2 2 3 3 2 2 2 2 3 1 3 6 3 6 2 7 2 2 1 7 1 2 3 5
6 1 1 5 5 4 3 3 3 1 1 4 2 2 2 1 2 3 3 3 2 3 3 3 2 3 3 2 1 4 3 3 1 2 3 5 5 11 3 3 7 6 4 5 7
2 2 3 8 6 3 5 3 1 2 3 2 2 2 2 1 4 1 3 2 3 2 2 2 4 1 2 1 3 2 2 2 3 4 6 5 5 8 1 1 0 7 4 4 8
2 2 4 7 4 5 2 2 2 2 2 2 3 3 4 2 2 2 3 3 2 4 2 3 2 4 2 7 5 4 4 3 3 3 5 7 1 4 5 5 6 3 4 7 8
1 1 5 5 4 2 1 2 2 1 1 2 4 5 3 1 4 4 5 3 3 6 3 4 3 5 5 4 2 2 3 7 5 6 5 5 8 5 4 1 2 7 8 9 8
2 1 2 3 2 1 1 2 3 4 3 2 3 5 1 3 4 8 4 2 6 6 2 4 4 4 5 3 3 5 9 6 2 3 10 7 7 1 3 4 7 10 9 8 8
0 2 3 3 3 2 2 2 3 2 6 4 4 3 4 5 7 5 4 3 6 6 3 3 5 8 10 4 4 5 8 11 10 7 11 16 21 14 12 12 12 10 7 8 10
3 1 1 0 2 3 3 2 3 3 4 5 3 10 6 4 5 7 12 13 7 6 5 6 8 12 16 14 8 8 8 13 17 16 15 18 22 21 14 4 9 6 13 11 11
1 1 2 1 3 5 5 5 10 9 6 6 9 6 11 9 10 9 3 4 8 8 9 7 5 1 9 14 18 16 18 19 19 23 21 24 30 28 22 18 15 13 9 10 10
1 1 2 3 4 5 7 7 4 3 8 15 14 13 14 16 16 18 17 14 13 6 11 6 6 5 13 2 2 10 17 23 20 18 17 18 29 15 13 9 8 8 6 10 11
Wind_Direction
14 14 13 15 8 2 358 349 340 342 338 337 340 343 341 336 269 90 44 337 319 319 315 286 244 168 184 103 354 296 242 245 244 237 98 135 193 164 33 258 203 168 307 61 140
8 8 8 9 6 359 355 348 333 323 325 326 329 332 332 313 271 57 1 335 323 321 288 247 170 179 121 102 63 244 249 263 26 25 58 157 234 169 226 204 220 203 145 158 150
359 357 2 358 356 353 352 346 330 312 313 317 317 324 329 275 247 28 355 339 334 305 240 277 152 236 141 193 72 144 286 40 66 48 358 145 225 213 241 235 234 223 193 179 181
351 353 353 353 350 348 347 344 335 305 303 313 314 321 309 242 300 7 343 337 332 315 247 172 196 191 173 178 101 218 75 359 85 55 27 218 338 247 237 250 342 270 217 182 199
343 343 346 347 344 344 345 341 338 309 298 308 313 322 236 155 32 341 335 342 332 330 32 55 191 178 165 124 147 239 135 86 87 123 290 289 257 270 265 250 201 174 212 193 207
336 332 338 342 340 338 339 336 332 306 296 309 318 303 249 225 344 343 341 351 18 34 53 26 59 84 105 75 320 90 144 126 200 213 264 288 276 315 199 247 222 211 218 217 217
331 333 331 336 334 333 335 331 321 296 288 305 316 279 61 72 343 355 5 5 7 16 67 38 12 330 149 125 115 125 204 201 197 125 312 322 261 235 252 190 237 226 223 226 216
323 324 325 330 328 327 333 330 316 311 292 296 297 269 70 38 342 4 357 14 30 39 67 40 26 86 16 114 141 233 244 254 123 207 113 291 277 175 253 231 234 229 221 222 216
311 317 316 323 326 324 332 327 327 310 312 292 249 283 86 166 349 349 6 354 329 28 51 27 27 70 158 230 207 54 263 253 168 123 296 225 289 76 220 233 249 232 226 222 229
322 320 322 326 330 329 332 302 2 206 254 239 77 183 72 357 331 328 2 340 336 302 226 354 35 143 188 288 302 312 286 242 277 88 265 261 266 278 264 235 255 257 252 240 236
344 341 336 337 335 339 336 231 246 167 41 42 358 334 353 332 265 15 2 321 280 229 295 43 221 337 12 25 359 332 304 290 292 59 308 273 277 279 279 266 258 258 255 259 259
3 355 345 338 331 348 356 52 46 350 322 51 41 32 347 337 288 29 345 306 65 72 340 349 260 54 82 17 326 315 318 292 289 53 293 294 289 276 283 274 253 230 205 190 185
353 354 346 341 297 44 66 53 340 301 284 73 32 6 345 330 27 352 352 3 73 61 29 347 65 110 317 341 318 281 268 300 294 323 257 297 273 220 161 186 180 196 157 164 171
350 353 348 339 247 18 54 3 326 314 94 357 43 59 274 314 117 7 9 348 97 139 25 48 77 275 324 303 312 282 19 317 321 336 298 18 289 280 177 209 198 172 185 142 146
0 358 353 15 2 40 2 325 306 235 338 55 48 353 333 343 344 85 348 249 24 95 72 70 254 262 321 12 331 346 337 313 294 274 317 158 248 259 157 168 167 166 147 127 123
21 8 333 220 72 50 316 292 236 31 262 1 330 346 350 360 26 318 312 76 25 155 80 89 47 336 24 78 22 78 306 264 247 240 241 92 284 269 280 206 135 142 140 140 117
60 43 34 342 20 339 306 233 27 122 258 340 342 354 338 325 347 360 331 251 291 314 187 179 158 102 310 245 152 275 281 270 224 211 296 338 264 264 298 22 153 171 164 137 123
51 345 42 48 341 318 258 46 93 192 272 314 285 284 321 349 91 322 281 263 153 272 268 279 229 168 4 300 326 193 327 304 287 297 345 188 242 232 126 310 259 75 140 222 250
301 39 43 10 337 291 39 65 218 186 351 330 271 300 324 181 296 315 245 277 31 167 222 267 190 135 29 351 295 135 211 39 285 117 266 239 248 268 68 345 235 202 271 257 289
312 307 34 337 330 288 74 233 141 341 332 275 272 298 300 316 303 339 281 132 161 158 154 100 270 162 154 218 83 258 47 188 186 271 265 227 252 251 350 51 282 175 204 309 289
264 348 33 341 290 47 138 237 325 298 299 316 317 293 259 299 266 265 286 155 184 147 180 150 239 128 205 202 181 148 202 221 311 255 271 297 216 186 208 189 191 238 276 262 265
323 340 14 324 24 18 146 202 251 238 181 259 276 267 231 229 256 255 262 241 160 162 202 173 264 254 228 119 287 241 255 209 236 182 243 292 270 203 195 180 232 266 260 269 247
76 306 40 307 226 225 326 308 228 210 218 203 253 247 229 216 260 239 246 138 183 198 218 172 216 269 194 190 190 226 202 221 317 295 240 263 264 50 159 220 232 251 271 271 281
242 349 356 35 304 160 196 222 254 256 253 211 268 238 229 222 207 284 262 172 191 216 193 167 242 252 264 13 104 210 215 220 209 236 259 231 267 267 261 284 304 297 278 276 285
4 334 105 346 204 243 316 193 215 263 235 216 250 232 207 257 249 236 250 263 216 214 206 201 245 245 255 265 239 249 231 213 212 229 241 259 267 269 272 259 287 291 300 300 287
119 151 185 265 222 233 200 239 238 239 217 232 236 244 238 235 235 267 273 241 242 191 208 204 253 199 260 256 252 242 244 244 239 241 254 255 266 263 284 281 269 270 270 280 281
91 100 331 262 231 229 233 231 259 266 247 252 273 269 261 267 270 269 277 273 258 232 214 207 218 196 261 81 300 251 226 229 235 229 230 239 244 272 266 251 248 253 234 265 276